GW6259 Weather Reports


time (UTC)temp
F
wind
direction
speed
knots
gust
knots
rain 1hr
in
rain 24hr
in
rain mn
in
humidity
%
barometer
mb
20260906110012 87 223 2.6 8.7 0.00 0.00 0.00 24 1027.2
20260906104514 88 129 1.7 7.0 0.00 0.00 0.00 24 1027.3
20260906103014 88 137 3.5 7.8 0.00 0.00 0.00 21 1027.5
20260906101524 87 244 3.5 7.8 0.00 0.00 0.00 21 1027.6
20260906100005 87 182 3.5 7.0 0.00 0.00 0.00 23 1027.6
20260906094513 86 151 4.3 8.7 0.00 0.00 0.00 24 1027.7
20260906093014 86 123 2.6 6.1 0.00 0.00 0.00 25 1027.8
20260906091527 85 115 2.6 5.2 0.00 0.00 0.00 26 1027.8
20260906090027 85 147 2.6 7.8 0.00 0.00 0.00 25 1027.9
20260906084516 85 58 2.6 5.2 0.00 0.00 0.00 25 1027.7
20260906083014 85 125 0.0 7.8 0.00 0.00 0.00 26 1027.7
20260906081531 84 46 3.5 7.8 0.00 0.00 0.00 26 1027.5
20260906080020 84 60 3.5 7.8 0.00 0.00 0.00 27 1027.6
20260906074528 84 40 2.6 7.0 0.00 0.00 0.00 27 1027.5
20260906073007 82 87 3.5 6.1 0.00 0.00 0.00 28 1027.3
20260906071512 82 167 2.6 6.1 0.00 0.00 0.00 30 1027.2
20260906070017 82 96 1.7 4.3 0.00 0.00 0.00 32 1027.1
20260906064532 81 68 0.9 3.5 0.00 0.00 0.00 35 1027.0
20260906063030 81 64 1.7 2.6 0.00 0.00 0.00 34 1027.0
20260906061507 80 96 0.9 2.6 0.00 0.00 0.00 32 1026.9
20260906060011 79 65 0.9 3.5 0.00 0.00 0.00 33 1026.7
20260906054517 77 332 0.9 3.5 0.00 0.00 0.00 35 1026.7
20260906053030 76 346 1.7 6.1 0.00 0.00 0.00 37 1026.6
20260906051532 75 342 2.6 5.2 0.00 0.00 0.00 38 1026.5
20260906050023 74 328 3.5 6.1 0.00 0.00 0.00 37 1026.4
20260906044516 73 345 2.6 6.1 0.00 0.00 0.00 35 1026.4
20260906043025 72 332 1.7 3.5 0.00 0.00 0.00 35 1026.3
20260906041529 72 317 1.7 2.6 0.00 0.00 0.00 34 1026.4
20260906040037 73 25 0.9 3.5 0.00 0.00 0.00 34 1026.3
20260906034514 73 304 2.6 3.5 0.00 0.00 0.00 33 1026.1
20260906033024 72 337 0.9 1.7 0.00 0.00 0.00 36 1026.3
20260906031529 72 330 0.0 2.6 0.00 0.00 0.00 34 1026.2
20260906030007 73 309 0.9 2.6 0.00 0.00 0.00 34 1026.2
20260906024510 73 328 1.7 3.5 0.00 0.00 0.00 34 1026.3
20260906023013 73 328 1.7 3.5 0.00 0.00 0.00 34 1026.4
20260906021526 74 325 1.7 3.5 0.00 0.00 0.00 34 1026.4
20260906020031 73 338 2.6 4.3 0.00 0.00 0.00 33 1026.4
20260906014534 74 348 2.6 4.3 0.00 0.00 0.00 33 1026.3
20260906013011 73 330 1.7 4.3 0.00 0.00 0.00 33 1026.4
20260906011519 74 314 1.7 4.3 0.00 0.00 0.00 33 1026.6
20260906010026 73 330 2.6 4.3 0.00 0.00 0.00 35 1026.7
20260906004536 73 320 1.7 2.6 0.00 0.00 0.00 36 1026.7
20260906003030 72 333 1.7 3.5 0.00 0.00 0.00 37 1026.6
20260906001516 72 335 1.7 2.6 0.00 0.00 0.00 37 1026.7
20260906000019 71 335 1.7 2.6 0.00 0.00 0.00 41 1026.8
20260905234529 70 332 1.7 3.5 0.00 0.00 0.00 46 1027.0
20260905233030 70 347 0.0 0.9 0.00 0.00 0.00 50 1027.0
20260905231532 70 353 0.0 0.9 0.00 0.00 0.00 50 1027.1
20260905230019 70 319 0.9 1.7 0.00 0.00 0.00 47 1027.0
20260905224526 69 287 0.9 1.7 0.00 0.00 0.00 63 1027.1
20260905223030 70 303 1.7 3.5 0.00 0.00 0.00 58 1027.0
20260905221530 70 335 0.9 1.7 0.00 0.00 0.00 54 1027.2
20260905220033 70 345 0.9 1.7 0.00 0.00 0.00 50 1027.2
20260905214519 70 338 0.0 0.0 0.00 0.00 0.00 48 1027.1
20260905213026 71 350 0.0 0.9 0.00 0.00 0.00 48 1027.2
20260905211532 72 326 1.7 3.5 0.00 0.00 0.00 46 1027.1
20260905210042 72 322 1.7 4.3 0.00 0.00 0.00 48 1027.3
20260905204532 72 339 1.7 4.3 0.00 0.00 0.00 50 1027.2
20260905203020 71 326 1.7 5.2 0.00 0.00 0.00 50 1027.2
20260905201536 73 4 0.9 4.3 0.00 0.00 0.00 44 1027.3
20260905200039 72 339 1.7 4.3 0.00 0.00 0.00 45 1027.2
20260905194514 70 308 1.7 5.2 0.00 0.00 0.00 66 1027.2
20260905193027 71 292 3.5 4.3 0.00 0.00 0.00 68 1027.2
20260905191523 72 271 3.5 8.7 0.00 0.00 0.00 58 1027.0
20260905190011 74 324 3.5 7.0 0.00 0.00 0.00 42 1026.8
20260905184517 75 319 2.6 7.8 0.00 0.00 0.00 40 1026.6
20260905183024 74 319 0.9 6.1 0.00 0.00 0.00 42 1026.5
20260905181523 74 342 3.5 6.1 0.00 0.00 0.00 46 1026.5
20260905180029 75 334 3.5 6.1 0.00 0.00 0.00 46 1026.4
20260905174518 75 318 3.5 5.2 0.00 0.00 0.00 43 1026.4
20260905173009 76 341 2.6 5.2 0.00 0.00 0.00 44 1026.1
20260905171517 76 323 2.6 5.2 0.00 0.00 0.00 43 1026.2
20260905170023 77 335 1.7 4.3 0.00 0.00 0.00 42 1026.2
20260905164530 77 347 3.5 7.8 0.00 0.00 0.00 42 1026.3
20260905163009 78 1 4.3 9.6 0.00 0.00 0.00 47 1026.2
20260905161510 80 326 3.5 9.6 0.00 0.00 0.00 43 1026.3
20260905160027 81 309 2.6 8.7 0.00 0.00 0.00 40 1026.2
20260905154525 82 266 3.5 7.8 0.00 0.00 0.00 39 1026.3
20260905153030 84 49 2.6 5.2 0.00 0.00 0.00 37 1026.3
20260905151508 84 68 2.6 5.2 0.00 0.00 0.00 37 1026.3
20260905150024 84 60 0.9 7.0 0.00 0.00 0.00 39 1026.2
20260905144539 84 55 4.3 8.7 0.00 0.00 0.00 40 1026.1
20260905143029 84 46 4.3 9.6 0.00 0.00 0.00 42 1026.2
20260905141548 85 50 3.5 9.6 0.00 0.00 0.00 42 1026.2
20260905140010 85 15 2.6 8.7 0.00 0.00 0.00 43 1026.1
20260905134519 84 21 3.5 9.6 0.00 0.00 0.00 43 1026.2
20260905133039 84 51 4.3 7.8 0.00 0.00 0.00 43 1026.2
20260905131548 83 21 1.7 6.1 0.00 0.00 0.00 44 1026.3
20260905130031 84 359 1.7 7.8 0.00 0.00 0.00 43 1026.5
20260905124511 85 355 1.7 7.8 0.00 0.00 0.00 42 1026.6
20260905123019 86 80 3.5 9.6 0.00 0.00 0.00 37 1026.7
20260905121527 86 197 5.2 7.8 0.00 0.00 0.00 37 1026.8
20260905120029 87 96 2.6 8.7 0.00 0.00 0.00 35 1026.8
20260905114555 87 339 2.6 10.4 0.00 0.00 0.00 35 1026.8
20260905113017 86 271 4.3 11.3 0.00 0.00 0.00 36 1026.9
20260905111523 85 274 6.1 7.8 0.00 0.00 0.00 33 1027.1